Find Starlink 3189

NORAD ID: 51464 Int'l Des: 2022-010 Owner: SPXS Country: US Constellation: starlink operational
LEOCIRCULAR

当前视图

正在加载3D地球...

About Starlink 3189

Starlink 3189 (NORAD 51464) is a starlink constellation satellite (v1.5) launched Feb 3, 2022 by SPXS of US. It operates in LEO, CIRCULAR orbit with a mass of 297.00 kg.

关于 Starlink 3189

正在加载描述...

即将过境

Passes for default location (London). Set your location on the main map for personalized predictions.

高度历史

Loading altitude history...

两行轨道根数

1 51464U 22010J 26166.39671623 -.00000061 00000-0 14283-4 0 9993
2 51464 53.1597 200.4128 0001874 66.5393 293.5795 15.08828628242074
Epoch: Jun 15, 2026 • Age: 7 hours

当前状态

高度 552.8 km
速度 7.58 km/s
星下点 -36.59°S, 104.66°W
发射日期 Feb 3, 2022
运行时间 4.3 years
类型 internet

技术详情

分类 Payload
质量 297.00 kg
干质量 275.00 kg
总质量 297.00 kg
长度 0.20 m
直径 2.80 m
跨度 9.00 m
形状 Box + pan
制造商 SPXS
平台类型 Starlink
阶段状态 In Orbit
所有者/国家 SPXS/US

Most Searched